datetime,"average soil temperature, 40 in depth"
2004-10-20,54.0
2004-10-21,54.48
2004-10-22,54.26
2004-10-23,53.99
2004-10-24,53.13
2004-10-25,52.17
2004-10-26,51.44
2004-10-27,
2004-10-28,
2004-10-29,
2004-10-30,
2004-10-31,
2004-11-01,
2004-11-02,
2004-11-03,
2004-11-04,48.2
2004-11-05,48.04
2004-11-06,47.85
2004-11-07,47.65
2004-11-08,47.44
2004-11-09,47.26
2004-11-10,47.09
2004-11-11,46.96
2004-11-12,46.83
2004-11-13,46.76
2004-11-14,46.7
2004-11-15,46.66
2004-11-16,46.64
2004-11-17,
2004-11-18,46.51
2004-11-19,46.45
2004-11-20,46.36
2004-11-21,46.24
2004-11-22,46.08
2004-11-23,45.88
2004-11-24,45.67
2004-11-25,45.45
2004-11-26,45.23
2004-11-27,45.02
2004-11-28,44.82
2004-11-29,44.62
2004-11-30,44.41
2004-12-01,44.23
2004-12-02,44.04
2004-12-03,43.86
2004-12-04,43.69
2004-12-05,43.52
2004-12-06,43.36
2004-12-07,43.21
2004-12-08,
2004-12-09,
2004-12-10,40.54
2004-12-11,38.7
2004-12-12,
2004-12-13,
2004-12-14,
2004-12-15,37.95
2004-12-16,38.11
2004-12-17,38.28
2004-12-18,38.44
2004-12-19,38.58
2004-12-20,38.71
2004-12-21,38.82
2004-12-22,38.91
2004-12-23,39.0
2004-12-24,39.07
2004-12-25,39.11
2004-12-26,39.15
2004-12-27,39.18
2004-12-28,39.19
2004-12-29,
2004-12-30,
2004-12-31,
2005-01-01,
2005-01-02,
2005-01-03,
2005-01-04,
2005-01-05,
2005-01-06,
2005-01-07,39.13
2005-01-08,39.09
2005-01-09,39.08
2005-01-10,
2005-01-11,
2005-01-12,
2005-01-13,
2005-01-14,38.98
2005-01-15,38.95
2005-01-16,38.93
2005-01-17,38.9
2005-01-18,38.87
2005-01-19,38.84
2005-01-20,38.81
2005-01-21,38.78
2005-01-22,38.75
2005-01-23,38.71
2005-01-24,38.67
2005-01-25,38.65
2005-01-26,38.6
2005-01-27,38.57
2005-01-28,38.58
2005-01-29,
2005-01-30,
2005-01-31,
2005-02-01,37.83
2005-02-02,37.73
2005-02-03,37.64
2005-02-04,37.58
2005-02-05,37.55
2005-02-06,37.52
2005-02-07,37.53
2005-02-08,37.54
2005-02-09,37.54
2005-02-10,37.54
2005-02-11,37.54
2005-02-12,37.54
2005-02-13,37.55
2005-02-14,37.53
2005-02-15,37.53
2005-02-16,37.52
2005-02-17,37.5
2005-02-18,37.48
2005-02-19,37.48
2005-02-20,37.49
2005-02-21,37.51
2005-02-22,37.53
2005-02-23,37.56
2005-02-24,37.59
2005-02-25,37.64
2005-02-26,37.7
2005-02-27,37.77
2005-02-28,37.85
2005-03-01,37.92
2005-03-02,38.01
2005-03-03,38.09
2005-03-04,38.15
2005-03-05,38.22
2005-03-06,38.3
2005-03-07,38.41
2005-03-08,38.53
2005-03-09,38.68
2005-03-10,38.86
2005-03-11,39.06
2005-03-12,39.26
2005-03-13,39.48
2005-03-14,39.69
2005-03-15,39.89
2005-03-16,40.06
2005-03-17,40.18
2005-03-18,40.28
2005-03-19,40.37
2005-03-20,40.46
2005-03-21,40.54
2005-03-22,40.62
2005-03-23,40.66
2005-03-24,40.68
2005-03-25,40.7
2005-03-26,40.7
2005-03-27,40.71
2005-03-28,40.73
2005-03-29,40.78
2005-03-30,40.81
2005-03-31,40.82
2005-04-01,40.85
2005-04-02,40.88
2005-04-03,40.94
2005-04-04,41.01
2005-04-05,41.09
2005-04-06,41.16
2005-04-07,41.22
2005-04-08,41.33
2005-04-09,41.47
2005-04-10,41.59
2005-04-11,41.69
2005-04-12,41.8
2005-04-13,41.92
2005-04-14,42.06
2005-04-15,42.16
2005-04-16,42.26
2005-04-17,42.37
2005-04-18,42.49
2005-04-19,42.63
2005-04-20,42.74
2005-04-21,42.79
2005-04-22,42.84
2005-04-23,42.9
2005-04-24,43.0
2005-04-25,43.14
2005-04-26,43.3
2005-04-27,43.5
2005-04-28,43.73
2005-04-29,43.99
2005-04-30,44.32
2005-05-01,44.65
2005-05-02,44.95
2005-05-03,45.25
2005-05-04,45.69
2005-05-05,46.16
2005-05-06,46.6
2005-05-07,46.98
2005-05-08,47.27
2005-05-09,47.48
2005-05-10,47.94
2005-05-11,48.48
2005-05-12,48.7
2005-05-13,48.74
2005-05-14,48.74
2005-05-15,48.79
2005-05-16,48.95
2005-05-17,49.29
2005-05-18,49.65
2005-05-19,49.95
2005-05-20,50.24
2005-05-21,50.41
2005-05-22,50.51
2005-05-23,50.53
2005-05-24,50.58
2005-05-25,50.66
2005-05-26,50.74
2005-05-27,50.87
2005-05-28,51.08
2005-05-29,51.35
2005-05-30,51.61
2005-05-31,51.79
2005-06-01,51.94
2005-06-02,52.11
2005-06-03,52.23
2005-06-04,52.29
2005-06-05,52.36
2005-06-06,52.43
2005-06-07,52.51
2005-06-08,52.52
2005-06-09,52.45
2005-06-10,52.37
2005-06-11,52.31
2005-06-12,52.31
2005-06-13,52.34
2005-06-14,52.39
2005-06-15,52.46
2005-06-16,52.57
2005-06-17,52.69
2005-06-18,52.79
2005-06-19,52.82
2005-06-20,52.78
2005-06-21,52.75
2005-06-22,52.75
2005-06-23,52.79
2005-06-24,52.87
2005-06-25,53.01
2005-06-26,53.21
2005-06-27,53.46
2005-06-28,53.73
2005-06-29,53.98
2005-06-30,54.0
2005-07-01,56.43
2005-07-02,59.11
2005-07-03,59.85
2005-07-04,60.19
2005-07-05,60.3
2005-07-06,60.31
2005-07-07,60.32
2005-07-08,60.32
2005-07-09,60.36
2005-07-10,60.42
2005-07-11,60.47
2005-07-12,60.51
2005-07-13,60.59
2005-07-14,66.07
2005-07-15,72.13
2005-07-16,72.63
2005-07-17,72.06
2005-07-18,71.49
2005-07-19,70.94
2005-07-20,70.47
2005-07-21,70.05
2005-07-22,69.7
2005-07-23,69.38
2005-07-24,69.07
2005-07-25,68.78
2005-07-26,68.51
2005-07-27,68.26
2005-07-28,68.01
2005-07-29,67.75
2005-07-30,67.49
2005-07-31,67.26
2005-08-01,66.41
2005-08-02,67.47
2005-08-03,69.81
2005-08-04,70.64
2005-08-05,70.44
2005-08-06,70.56
2005-08-07,71.75
2005-08-08,71.72
2005-08-09,71.44
2005-08-10,71.17
2005-08-11,70.86
2005-08-12,70.56
2005-08-13,70.25
2005-08-14,69.93
2005-08-15,69.61
2005-08-16,69.3
2005-08-17,69.0
2005-08-18,68.72
2005-08-19,68.44
2005-08-20,68.18
2005-08-21,67.92
2005-08-22,67.66
2005-08-23,67.41
2005-08-24,67.17
2005-08-25,66.92
2005-08-26,66.67
2005-08-27,66.0
2005-08-28,64.69
2005-08-29,64.8
2005-08-30,64.43
2005-08-31,64.3
2005-09-01,64.16
2005-09-02,64.0
2005-09-03,63.83
2005-09-04,63.65
2005-09-05,63.49
2005-09-06,63.32
2005-09-07,63.15
2005-09-08,62.98
2005-09-09,62.81
2005-09-10,62.65
2005-09-11,62.48
2005-09-12,62.28
2005-09-13,62.05
2005-09-14,61.78
2005-09-15,61.5
2005-09-16,61.24
2005-09-17,60.99
2005-09-18,60.75
2005-09-19,60.51
2005-09-20,60.16
2005-09-21,58.38
2005-09-22,57.15
2005-09-23,56.08
2005-09-24,54.9
2005-09-25,51.79
2005-09-26,51.0
2005-09-27,51.21
2005-09-28,51.49
2005-09-29,51.74
2005-09-30,51.97
2005-10-01,52.16
2005-10-02,52.32
2005-10-03,52.45
2005-10-04,52.53
2005-10-05,52.55
2005-10-06,52.52
2005-10-07,52.46
2005-10-08,52.41
2005-10-09,52.34
2005-10-10,52.29
2005-10-11,52.24
2005-10-12,52.2
2005-10-13,52.16
2005-10-14,52.14
2005-10-15,52.11
2005-10-16,52.09
2005-10-17,52.08
2005-10-18,52.04
2005-10-19,52.0
2005-10-20,51.96
2005-10-21,51.93
2005-10-22,51.89
2005-10-23,51.85
2005-10-24,51.79
2005-10-25,51.72
2005-10-26,51.65
2005-10-27,51.59
2005-10-28,51.52
2005-10-29,51.45
2005-10-30,51.37
2005-10-31,51.27
2005-11-01,51.16
2005-11-02,51.04
2005-11-03,50.93
2005-11-04,50.81
2005-11-05,50.66
2005-11-06,50.21
2005-11-07,47.5
2005-11-08,43.88
2005-11-09,40.39
2005-11-10,39.04
2005-11-11,39.27
2005-11-12,39.91
2005-11-13,40.49
2005-11-14,40.97
2005-11-15,41.37
2005-11-16,41.71
2005-11-17,42.01
2005-11-18,42.26
2005-11-19,42.45
2005-11-20,42.6
2005-11-21,42.7
2005-11-22,42.77
2005-11-23,42.83
2005-11-24,42.87
2005-11-25,42.9
2005-11-26,42.92
2005-11-27,42.94
2005-11-28,42.95
2005-11-29,42.95
2005-11-30,42.92
2005-12-01,42.81
2005-12-02,42.0
2005-12-03,41.69
2005-12-04,41.67
2005-12-05,41.64
2005-12-06,41.61
2005-12-07,41.58
2005-12-08,41.56
2005-12-09,41.54
2005-12-10,41.52
2005-12-11,41.49
2005-12-12,41.46
2005-12-13,41.42
2005-12-14,41.39
2005-12-15,41.35
2005-12-16,41.31
2005-12-17,41.25
2005-12-18,41.19
2005-12-19,41.01
2005-12-20,40.31
2005-12-21,37.97
2005-12-22,35.48
2005-12-23,34.3
2005-12-24,33.94
2005-12-25,33.97
2005-12-26,34.34
2005-12-27,34.72
2005-12-28,35.17
2005-12-29,35.53
2005-12-30,35.45
2005-12-31,35.18
2006-01-01,34.69
2006-01-02,34.59
2006-01-03,34.53
2006-01-04,34.65
2006-01-05,34.89
2006-01-06,35.13
2006-01-07,35.37
2006-01-08,35.66
2006-01-09,35.96
2006-01-10,36.25
2006-01-11,36.49
2006-01-12,36.73
2006-01-13,36.95
2006-01-14,37.16
2006-01-15,37.45
2006-01-16,37.59
2006-01-17,37.7
2006-01-18,37.81
2006-01-19,37.89
2006-01-20,37.91
2006-01-21,37.94
2006-01-22,37.97
2006-01-23,38.0
2006-01-24,38.02
2006-01-25,38.05
2006-01-26,38.06
2006-01-27,38.08
2006-01-28,38.09
2006-01-29,38.11
2006-01-30,38.11
2006-01-31,38.13
2006-02-01,38.11
2006-02-02,38.09
2006-02-03,38.05
2006-02-04,37.61
2006-02-05,34.97
2006-02-06,33.65
2006-02-07,33.73
2006-02-08,34.08
2006-02-09,34.4
2006-02-10,34.69
2006-02-11,34.94
2006-02-12,35.17
2006-02-13,35.4
2006-02-14,35.61
2006-02-15,35.79
2006-02-16,35.94
2006-02-17,36.06
2006-02-18,36.18
2006-02-19,36.28
2006-02-20,36.37
2006-02-21,36.44
2006-02-22,36.5
2006-02-23,36.55
2006-02-24,36.6
2006-02-25,36.65
2006-02-26,36.69
2006-02-27,36.72
2006-02-28,36.76
2006-03-01,36.83
2006-03-02,36.72
2006-03-03,36.58
2006-03-04,36.5
2006-03-05,36.45
2006-03-06,36.41
2006-03-07,36.41
2006-03-08,36.41
2006-03-09,36.42
2006-03-10,36.45
2006-03-11,36.47
2006-03-12,36.48
2006-03-13,36.52
2006-03-14,36.54
2006-03-15,36.56
2006-03-16,36.58
2006-03-17,36.6
2006-03-18,36.62
2006-03-19,36.65
2006-03-20,36.67
2006-03-21,36.71
2006-03-22,36.74
2006-03-23,36.76
2006-03-24,36.79
2006-03-25,36.84
2006-03-26,36.93
2006-03-27,37.02
2006-03-28,37.13
2006-03-29,37.23
2006-03-30,37.35
2006-03-31,37.48
2006-04-01,37.6
2006-04-02,37.72
2006-04-03,37.83
2006-04-04,37.94
2006-04-05,38.08
2006-04-06,38.21
2006-04-07,38.36
2006-04-08,38.52
2006-04-09,38.69
2006-04-10,38.87
2006-04-11,39.05
2006-04-12,39.22
2006-04-13,39.38
2006-04-14,39.54
2006-04-15,39.71
2006-04-16,39.91
2006-04-17,40.13
2006-04-18,40.31
2006-04-19,40.46
2006-04-20,40.58
2006-04-21,40.72
2006-04-22,40.9
2006-04-23,41.13
2006-04-24,41.36
2006-04-25,41.57
2006-04-26,41.77
2006-04-27,41.99
2006-04-28,42.25
2006-04-29,42.53
2006-04-30,42.83
2006-05-01,43.15
2006-05-02,43.45
2006-05-03,43.71
2006-05-04,43.95
2006-05-05,44.18
2006-05-06,44.4
2006-05-07,44.62
2006-05-08,44.85
2006-05-09,45.08
2006-05-10,45.28
2006-05-11,45.48
2006-05-12,49.48
2006-05-13,62.83
2006-05-14,57.91
2006-05-15,55.35
2006-05-16,54.01
2006-05-17,53.38
2006-05-18,53.01
2006-05-19,52.78
2006-05-20,52.64
2006-05-21,52.53
2006-05-22,52.43
2006-05-23,52.33
2006-05-24,52.22
2006-05-25,52.12
2006-05-26,52.01
2006-05-27,51.9
2006-05-28,51.78
2006-05-29,51.76
2006-05-30,54.33
2006-05-31,59.44
2006-06-01,56.54
2006-06-02,55.76
2006-06-03,55.42
2006-06-04,55.17
2006-06-05,54.96
2006-06-06,54.83
2006-06-07,54.77
2006-06-08,54.77
2006-06-09,54.8
2006-06-10,54.84
2006-06-11,54.87
2006-06-12,54.9
2006-06-13,54.93
2006-06-14,54.94
2006-06-15,54.94
2006-06-16,54.92
2006-06-17,54.89
2006-06-18,54.87
2006-06-19,54.86
2006-06-20,54.87
2006-06-21,54.87
2006-06-22,54.87
2006-06-23,54.87
2006-06-24,68.4
2006-06-25,78.73
2006-06-26,76.69
2006-06-27,73.34
2006-06-28,71.32
2006-06-29,69.93
2006-06-30,68.85
2006-07-01,67.94
2006-07-02,67.16
2006-07-03,66.31
2006-07-04,65.04
2006-07-05,64.13
2006-07-06,63.73
2006-07-07,63.43
2006-07-08,63.11
2006-07-09,62.78
2006-07-10,62.49
2006-07-11,62.26
2006-07-12,62.06
2006-07-13,69.62
2006-07-14,72.06
2006-07-15,77.09
2006-07-16,74.25
2006-07-17,73.18
2006-07-18,72.24
2006-07-19,70.98
2006-07-20,69.77
2006-07-21,68.75
2006-07-22,68.9
2006-07-23,70.65
2006-07-24,70.4
2006-07-25,70.11
2006-07-26,69.8
2006-07-27,69.46
2006-07-28,69.17
2006-07-29,68.91
2006-07-30,68.65
2006-07-31,68.38
2006-08-01,68.06
2006-08-02,67.7
2006-08-03,67.31
2006-08-04,66.92
2006-08-05,66.55
2006-08-06,66.21
2006-08-07,65.9
2006-08-08,65.62
2006-08-09,65.35
2006-08-10,65.08
2006-08-11,64.78
2006-08-12,64.5
2006-08-13,64.22
2006-08-14,63.95
2006-08-15,63.69
2006-08-16,63.44
2006-08-17,63.22
2006-08-18,63.0
2006-08-19,62.77
2006-08-20,62.55
2006-08-21,62.35
2006-08-22,62.17
2006-08-23,62.01
2006-08-24,61.86
2006-08-25,61.7
2006-08-26,61.53
2006-08-27,61.35
2006-08-28,61.19
2006-08-29,61.03
2006-08-30,60.85
2006-08-31,60.67
2006-09-01,60.51
2006-09-02,60.38
2006-09-03,60.26
2006-09-04,60.14
2006-09-05,60.04
2006-09-06,59.96
2006-09-07,59.88
2006-09-08,59.81
2006-09-09,59.76
2006-09-10,59.7
2006-09-11,59.64
2006-09-12,59.56
2006-09-13,59.46
2006-09-14,59.37
2006-09-15,59.27
2006-09-16,59.17
2006-09-17,59.03
2006-09-18,58.83
2006-09-19,58.6
2006-09-20,58.38
2006-09-21,58.18
2006-09-22,58.02
2006-09-23,57.86
2006-09-24,57.69
2006-09-25,57.5
2006-09-26,57.31
2006-09-27,57.11
2006-09-28,56.92
2006-09-29,56.76
2006-09-30,56.62
2006-10-01,56.49
2006-10-02,56.38
2006-10-03,56.27
2006-10-04,56.17
2006-10-05,56.06
2006-10-06,55.95
2006-10-07,55.84
2006-10-08,55.73
2006-10-09,55.61
2006-10-10,55.47
2006-10-11,55.32
2006-10-12,55.16
2006-10-13,54.98
2006-10-14,54.81
2006-10-15,54.64
2006-10-16,54.49
2006-10-17,54.35
2006-10-18,54.21
2006-10-19,54.04
2006-10-20,53.86
2006-10-21,53.71
2006-10-22,53.57
2006-10-23,53.44
2006-10-24,53.29
2006-10-25,53.12
2006-10-26,52.95
2006-10-27,52.76
2006-10-28,52.55
2006-10-29,52.31
2006-10-30,52.09
2006-10-31,51.89
2006-11-01,51.67
2006-11-02,51.44
2006-11-03,51.18
2006-11-04,50.93
2006-11-05,50.75
2006-11-06,50.62
2006-11-07,50.56
2006-11-08,50.55
2006-11-09,50.59
2006-11-10,50.64
2006-11-11,50.64
2006-11-12,50.57
2006-11-13,50.44
2006-11-14,50.28
2006-11-15,50.13
2006-11-16,49.76
2006-11-17,49.15
2006-11-18,48.51
2006-11-19,47.92
2006-11-20,47.46
2006-11-21,47.15
2006-11-22,46.96
2006-11-23,46.82
2006-11-24,46.7
2006-11-25,46.58
2006-11-26,46.45
2006-11-27,46.31
2006-11-28,46.17
2006-11-29,46.02
2006-11-30,45.87
2006-12-01,45.72
2006-12-02,45.57
2006-12-03,45.43
2006-12-04,45.28
2006-12-05,45.13
2006-12-06,44.98
2006-12-07,44.82
2006-12-08,44.65
2006-12-09,44.48
2006-12-10,44.32
2006-12-11,44.15
2006-12-12,43.96
2006-12-13,41.52
2006-12-14,40.13
2006-12-15,40.99
2006-12-16,40.69
2006-12-17,40.96
2006-12-18,41.16
2006-12-19,41.24
2006-12-20,41.25
2006-12-21,41.21
2006-12-22,41.17
2006-12-23,41.11
2006-12-24,41.04
2006-12-25,40.96
2006-12-26,40.9
2006-12-27,40.94
2006-12-28,40.84
2006-12-29,40.64
2006-12-30,40.49
2006-12-31,40.35
2007-01-01,40.25
2007-01-02,40.17
2007-01-03,40.11
2007-01-04,40.07
2007-01-05,40.0
2007-01-06,39.9
2007-01-07,39.81
2007-01-08,39.74
2007-01-09,39.68
2007-01-10,39.64
2007-01-11,39.59
2007-01-12,39.55
2007-01-13,39.52
2007-01-14,39.49
2007-01-15,39.45
2007-01-16,39.4
2007-01-17,39.35
2007-01-18,39.3
2007-01-19,39.24
2007-01-20,39.19
2007-01-21,39.14
2007-01-22,39.09
2007-01-23,39.05
2007-01-24,39.01
2007-01-25,38.97
2007-01-26,38.92
2007-01-27,38.88
2007-01-28,38.85
2007-01-29,38.82
2007-01-30,38.78
2007-01-31,38.74
2007-02-01,38.71
2007-02-02,38.68
2007-02-03,38.64
2007-02-04,38.61
2007-02-05,38.57
2007-02-06,38.53
2007-02-07,38.5
2007-02-08,38.46
2007-02-09,38.43
2007-02-10,38.38
2007-02-11,34.1
2007-02-12,33.49
2007-02-13,34.53
2007-02-14,35.19
2007-02-15,35.47
2007-02-16,35.67
2007-02-17,35.82
2007-02-18,35.93
2007-02-19,36.01
2007-02-20,36.08
2007-02-21,36.13
2007-02-22,36.2
2007-02-23,36.26
2007-02-24,36.31
2007-02-25,36.34
2007-02-26,36.36
2007-02-27,36.38
2007-02-28,36.39
2007-03-01,36.41
2007-03-02,36.41
2007-03-03,36.42
2007-03-04,36.45
2007-03-05,36.49
2007-03-06,36.49
2007-03-07,35.41
2007-03-08,34.61
2007-03-09,35.09
2007-03-10,39.2
2007-03-11,43.51
2007-03-12,39.38
2007-03-13,37.49
2007-03-14,37.4
2007-03-15,37.73
2007-03-16,38.03
2007-03-17,38.16
2007-03-18,38.19
2007-03-19,38.25
2007-03-20,38.35
2007-03-21,38.47
2007-03-22,38.61
2007-03-23,38.74
2007-03-24,38.85
2007-03-25,38.99
2007-03-26,39.16
2007-03-27,39.36
2007-03-28,39.55
2007-03-29,39.68
2007-03-30,39.76
2007-03-31,39.81
2007-04-01,39.89
2007-04-02,40.0
2007-04-03,40.14
2007-04-04,40.28
2007-04-05,40.43
2007-04-06,40.61
2007-04-07,40.82
2007-04-08,41.06
2007-04-09,41.33
2007-04-10,41.6
2007-04-11,41.84
2007-04-12,42.04
2007-04-13,42.22
2007-04-14,42.35
2007-04-15,42.47
2007-04-16,42.61
2007-04-17,42.74
2007-04-18,42.84
2007-04-19,42.93
2007-04-20,43.01
2007-04-21,43.07
2007-04-22,43.1
2007-04-23,43.14
2007-04-24,43.19
2007-04-25,43.26
2007-04-26,43.36
2007-04-27,43.51
2007-04-28,43.68
2007-04-29,43.88
2007-04-30,44.13
2007-05-01,44.41
2007-05-02,44.69
2007-05-03,44.96
2007-05-04,45.17
2007-05-05,45.32
2007-05-06,45.41
2007-05-07,45.46
2007-05-08,45.51
2007-05-09,45.62
2007-05-10,45.8
2007-05-11,46.04
2007-05-12,46.31
2007-05-13,46.6
2007-05-14,46.88
2007-05-15,47.12
2007-05-16,47.33
2007-05-17,47.54
2007-05-18,47.77
2007-05-19,48.0
2007-05-20,56.26
2007-05-21,58.54
2007-05-22,55.73
2007-05-23,55.15
2007-05-24,54.39
2007-05-25,53.92
2007-05-26,53.6
2007-05-27,53.4
2007-05-28,53.24
2007-05-29,53.13
2007-05-30,53.05
2007-05-31,52.99
2007-06-01,52.96
2007-06-02,52.97
2007-06-03,53.03
2007-06-04,53.14
2007-06-05,53.26
2007-06-06,53.35
2007-06-07,53.4
2007-06-08,53.4
2007-06-09,53.36
2007-06-10,53.31
2007-06-11,53.27
2007-06-12,53.26
2007-06-13,53.28
2007-06-14,53.29
2007-06-15,53.34
2007-06-16,53.42
2007-06-17,53.52
2007-06-18,53.66
2007-06-19,53.81
2007-06-20,53.92
2007-06-21,54.03
2007-06-22,54.16
2007-06-23,54.32
2007-06-24,54.52
2007-06-25,54.7
2007-06-26,54.82
2007-06-27,54.9
2007-06-28,54.94
2007-06-29,54.99
2007-06-30,55.05
2007-07-01,55.11
2007-07-02,55.17
2007-07-03,55.24
2007-07-04,55.33
2007-07-05,55.43
2007-07-06,55.55
2007-07-07,55.72
2007-07-08,55.9
2007-07-09,56.08
2007-07-10,56.25
2007-07-11,56.41
2007-07-12,56.57
2007-07-13,56.73
2007-07-14,56.86
2007-07-15,56.98
2007-07-16,57.08
2007-07-17,57.18
2007-07-18,57.26
2007-07-19,57.32
2007-07-20,57.34
2007-07-21,57.32
2007-07-22,57.28
2007-07-23,57.26
2007-07-24,57.27
2007-07-25,57.33
2007-07-26,57.42
2007-07-27,57.52
2007-07-28,57.63
2007-07-29,57.73
2007-07-30,57.84
2007-07-31,57.93
2007-08-01,58.01
2007-08-02,58.08
2007-08-03,58.15
2007-08-04,58.24
2007-08-05,58.31
2007-08-06,58.37
2007-08-07,58.38
2007-08-08,58.36
2007-08-09,58.33
2007-08-10,58.29
2007-08-11,58.25
2007-08-12,58.22
2007-08-13,58.19
2007-08-14,58.15
2007-08-15,58.1
2007-08-16,58.05
2007-08-17,57.99
2007-08-18,57.94
2007-08-19,57.87
2007-08-20,57.81
2007-08-21,57.75
2007-08-22,57.67
2007-08-23,57.64
2007-08-24,57.63
2007-08-25,57.64
2007-08-26,57.64
2007-08-27,57.64
2007-08-28,57.65
2007-08-29,57.65
2007-08-30,57.65
2007-08-31,57.65
2007-09-01,57.67
2007-09-02,57.7
2007-09-03,57.72
2007-09-04,57.73
2007-09-05,57.72
2007-09-06,57.69
2007-09-07,57.63
2007-09-08,57.56
2007-09-09,57.5
2007-09-10,57.45
2007-09-11,57.4
2007-09-12,57.34
2007-09-13,57.26
2007-09-14,57.19
2007-09-15,57.13
2007-09-16,57.05
2007-09-17,56.95
2007-09-18,56.83
2007-09-19,56.73
2007-09-20,56.63
2007-09-21,56.51
2007-09-22,56.36
2007-09-23,56.21
2007-09-24,56.07
2007-09-25,55.92
2007-09-26,55.76
2007-09-27,55.59
2007-09-28,55.43
2007-09-29,55.29
2007-09-30,55.15
2007-10-01,54.97
2007-10-02,54.78
2007-10-03,54.59
2007-10-04,54.43
2007-10-05,54.28
2007-10-06,54.14
2007-10-07,53.97
2007-10-08,53.77
2007-10-09,53.59
2007-10-10,53.44
2007-10-11,53.33
2007-10-12,53.22
2007-10-13,53.12
2007-10-14,53.01
2007-10-15,52.9
2007-10-16,52.8
2007-10-17,52.7
2007-10-18,52.6
2007-10-19,49.76
2007-10-20,42.36
2007-10-21,45.54
2007-10-22,46.61
2007-10-23,47.09
2007-10-24,47.3
2007-10-25,47.42
2007-10-26,47.56
2007-10-27,47.71
2007-10-28,47.83
2007-10-29,47.93
2007-10-30,48.0
2007-10-31,48.04
2007-11-01,48.07
2007-11-02,48.11
2007-11-03,48.12
2007-11-04,48.1
2007-11-05,48.04
2007-11-06,47.96
2007-11-07,47.87
2007-11-08,47.76
2007-11-09,47.64
2007-11-10,47.53
2007-11-11,47.42
2007-11-12,47.33
2007-11-13,47.25
2007-11-14,47.16
2007-11-15,47.07
2007-11-16,46.99
2007-11-17,46.92
2007-11-18,46.8
2007-11-19,46.43
2007-11-20,45.82
2007-11-21,45.81
2007-11-22,45.85
2007-11-23,45.79
2007-11-24,45.67
2007-11-25,45.54
2007-11-26,45.38
2007-11-27,45.2
2007-11-28,45.01
2007-11-29,44.82
2007-11-30,44.63
2007-12-01,44.43
2007-12-02,44.23
2007-12-03,44.04
2007-12-04,43.84
2007-12-05,43.63
2007-12-06,43.38
2007-12-07,43.13
2007-12-08,42.85
2007-12-09,42.56
2007-12-10,42.31
2007-12-11,42.12
2007-12-12,41.95
2007-12-13,41.81
2007-12-14,41.69
2007-12-15,41.58
2007-12-16,41.48
2007-12-17,41.38
2007-12-18,41.28
2007-12-19,41.17
2007-12-20,41.05
2007-12-21,40.91
2007-12-22,40.76
2007-12-23,40.63
2007-12-24,40.5
2007-12-25,40.38
2007-12-26,40.25
2007-12-27,40.14
2007-12-28,40.04
2007-12-29,39.96
2007-12-30,39.89
2007-12-31,39.82
2008-01-01,39.74
2008-01-02,39.69
2008-01-03,39.62
2008-01-04,39.57
2008-01-05,39.51
2008-01-06,39.41
2008-01-07,39.32
2008-01-08,39.21
2008-01-09,39.13
2008-01-10,39.05
2008-01-11,38.98
2008-01-12,38.92
2008-01-13,38.86
2008-01-14,38.79
2008-01-15,38.74
2008-01-16,38.69
2008-01-17,38.64
2008-01-18,38.59
2008-01-19,38.55
2008-01-20,38.51
2008-01-21,38.49
2008-01-22,38.45
2008-01-23,38.41
2008-01-24,38.38
2008-01-25,38.35
2008-01-26,38.31
2008-01-27,38.26
2008-01-28,38.22
2008-01-29,38.18
2008-01-30,38.14
2008-01-31,38.11
2008-02-01,38.08
2008-02-02,38.04
2008-02-03,38.01
2008-02-04,37.98
2008-02-05,37.95
2008-02-06,37.92
2008-02-07,37.88
2008-02-08,37.84
2008-02-09,37.79
2008-02-10,37.73
2008-02-11,37.63
2008-02-12,37.5
2008-02-13,37.29
2008-02-14,37.02
2008-02-15,36.82
2008-02-16,36.71
2008-02-17,36.64
2008-02-18,36.6
2008-02-19,36.55
2008-02-20,36.49
2008-02-21,36.43
2008-02-22,36.36
2008-02-23,36.32
2008-02-24,36.31
2008-02-25,36.33
2008-02-26,36.39
2008-02-27,36.41
2008-02-28,36.38
2008-02-29,36.2
2008-03-01,36.01
2008-03-02,35.91
2008-03-03,35.78
2008-03-04,35.72
2008-03-05,35.66
2008-03-06,35.3
2008-03-07,35.1
2008-03-08,35.13
2008-03-09,36.31
2008-03-10,39.47
2008-03-11,39.92
2008-03-12,36.64
2008-03-13,37.11
2008-03-14,38.09
2008-03-15,38.36
2008-03-16,38.3
2008-03-17,38.31
2008-03-18,38.16
2008-03-19,37.9
2008-03-20,37.61
2008-03-21,37.34
2008-03-22,37.16
2008-03-23,37.01
2008-03-24,36.88
2008-03-25,36.81
2008-03-26,36.77
2008-03-27,36.81
2008-03-28,36.9
2008-03-29,36.99
2008-03-30,37.1
2008-03-31,37.22
2008-04-01,37.33
2008-04-02,37.44
2008-04-03,37.53
2008-04-04,37.61
2008-04-05,37.69
2008-04-06,37.78
2008-04-07,37.86
2008-04-08,37.94
2008-04-09,38.04
2008-04-10,38.13
2008-04-11,38.23
2008-04-12,38.34
2008-04-13,38.47
2008-04-14,38.64
2008-04-15,38.86
2008-04-16,39.1
2008-04-17,39.33
2008-04-18,39.53
2008-04-19,39.72
2008-04-20,39.93
2008-04-21,40.21
2008-04-22,40.49
2008-04-23,40.74
2008-04-24,40.9
2008-04-25,41.0
2008-04-26,41.08
2008-04-27,41.17
2008-04-28,41.29
2008-04-29,41.44
2008-04-30,41.65
2008-05-01,41.88
2008-05-02,42.07
2008-05-03,42.22
2008-05-04,42.37
2008-05-05,42.54
2008-05-06,42.74
2008-05-07,42.96
2008-05-08,43.21
2008-05-09,43.48
2008-05-10,43.74
2008-05-11,43.98
2008-05-12,44.2
2008-05-13,44.41
2008-05-14,44.6
2008-05-15,44.82
2008-05-16,45.08
2008-05-17,45.35
2008-05-18,45.66
2008-05-19,45.99
2008-05-20,46.34
2008-05-21,46.7
2008-05-22,47.03
2008-05-23,47.28
2008-05-24,47.46
2008-05-25,47.58
2008-05-26,47.63
2008-05-27,47.73
2008-05-28,49.38
2008-05-29,50.75
2008-05-30,51.68
2008-05-31,51.72
2008-06-01,52.16
2008-06-02,52.63
2008-06-03,52.84
2008-06-04,52.83
2008-06-05,52.79
2008-06-06,52.76
2008-06-07,52.74
2008-06-08,52.73
2008-06-09,52.72
2008-06-10,52.75
2008-06-11,52.8
2008-06-12,52.85
2008-06-13,52.88
2008-06-14,52.92
2008-06-15,52.98
2008-06-16,53.08
2008-06-17,53.22
2008-06-18,53.38
2008-06-19,53.54
2008-06-20,53.69
2008-06-21,53.82
2008-06-22,53.94
2008-06-23,54.05
2008-06-24,54.12
2008-06-25,54.18
2008-06-26,54.25
2008-06-27,54.33
2008-06-28,54.43
2008-06-29,54.56
2008-06-30,54.72
2008-07-01,54.89
2008-07-02,55.08
2008-07-03,55.26
2008-07-04,55.43
2008-07-05,55.6
2008-07-06,55.75
2008-07-07,55.88
2008-07-08,55.99
2008-07-09,56.1
2008-07-10,56.2
2008-07-11,56.3
2008-07-12,56.4
2008-07-13,56.48
2008-07-14,56.55
2008-07-15,56.61
2008-07-16,56.67
2008-07-17,56.75
2008-07-18,56.83
2008-07-19,56.9
2008-07-20,56.96
2008-07-21,57.0
2008-07-22,57.04
2008-07-23,57.09
2008-07-24,57.14
2008-07-25,57.16
2008-07-26,57.17
2008-07-27,57.18
2008-07-28,57.2
2008-07-29,57.2
2008-07-30,57.21
2008-07-31,57.22
2008-08-01,57.21
2008-08-02,57.21
2008-08-03,57.2
2008-08-04,57.2
2008-08-05,57.21
2008-08-06,57.22
2008-08-07,57.23
2008-08-08,57.24
2008-08-09,57.27
2008-08-10,57.29
2008-08-11,57.3
2008-08-12,57.29
2008-08-13,57.26
2008-08-14,57.24
2008-08-15,57.24
2008-08-16,57.25
2008-08-17,57.29
2008-08-18,57.33
2008-08-19,57.4
2008-08-20,57.46
2008-08-21,57.49
2008-08-22,57.49
2008-08-23,57.46
2008-08-24,57.41
2008-08-25,57.35
2008-08-26,57.31
2008-08-27,57.28
2008-08-28,57.21
2008-08-29,57.12
2008-08-30,57.04
2008-08-31,56.97
2008-09-01,56.92
2008-09-02,56.85
2008-09-03,56.73
2008-09-04,56.58
2008-09-05,56.44
2008-09-06,56.32
2008-09-07,56.23
2008-09-08,56.16
2008-09-09,56.11
2008-09-10,56.08
2008-09-11,56.05
2008-09-12,56.0
2008-09-13,55.95